Weather History for Hutchinson, MN

Change the Weather History Date:

Tuesday, April 30, 2013

  Actual Average Record
Temperature  
Mean Temperature 60 °F -  
Max Temperature 67 °F 61 °F 90 °F (1968)
Min Temperature 52 °F 39 °F 25 °F (1966)
Degree Days  
Heating Degree Days 5    
Growing Degree Days 10 (Base 50)    
Moisture  
Dew Point 45 °F    
Average Humidity 57    
Maximum Humidity 84    
Minimum Humidity 28    
Precipitation  
Precipitation 0.00 in - - ()
Sea Level Pressure  
Sea Level Pressure 29.64 in    
Wind  
Wind Speed 13 mph (West)    
Max Wind Speed 23 mph    
Max Gust Speed 32 mph    
Visibility 10 miles    
Events      
Averages and records for this station are not official NWS values.
T = Trace of Precipitation, MM = Missing Value Source: NWS Daily Summary

Daily Weather History Graph

Daily Weather History Graph

Search for Another Location

Airport:

Trip Planner

Search our weather history database for the weather conditions in past years. The results will help you decide how hot, cold, wet, or windy it might be!

Date:

Astronomy

Apr. 30, 2013 Rise Set
Actual Time 6:08 AM CDT 8:21 PM CDT
Civil Twilight 5:36 AM CDT 8:54 PM CDT
Nautical Twilight 4:56 AM CDT 9:34 PM CDT
Astronomical Twilight 4:12 AM CDT 10:18 PM CDT
Moon 12:48 AM CDT 10:35 AM CDT
Length of Visible Light 15h 18m
Length of Day
14h 13m
Waning Gibbous, 70% of the Moon is Illuminated
Apr 30
Waning Gibbous
May 2
Last Quarter
May 9
New
May 17
First Quarter
May 24
Full

Hourly Weather History & Observations

Time (CDT) Temp. Dew Point Humidity Pressure Visibility Wind Dir Wind Speed Gust Speed Precip Events Conditions
12:14 AM 62.6 °F 54.9 °F 76% 29.51 in 10.0 mi ESE 9.2 mph - N/A   Clear
12:33 AM 61.9 °F 55.6 °F 80% 29.50 in 10.0 mi ESE 10.4 mph - N/A   Scattered Clouds
12:54 AM 62.6 °F 55.9 °F 79% 29.48 in 10.0 mi ESE 11.5 mph - N/A   Mostly Cloudy
1:14 AM 62.6 °F 55.9 °F 79% 29.47 in 10.0 mi ESE 11.5 mph - N/A   Mostly Cloudy
1:25 AM 62.4 °F 55.8 °F 79% 29.47 in 10.0 mi ESE 11.5 mph - N/A   Mostly Cloudy
1:53 AM 61.7 °F 55.9 °F 81% 29.46 in 10.0 mi ESE 10.4 mph - N/A   Mostly Cloudy
2:13 AM 61.2 °F 55.9 °F 83% 29.45 in 10.0 mi ESE 11.5 mph - N/A   Overcast
2:28 AM 61.7 °F 56.1 °F 82% 29.44 in 10.0 mi ESE 12.7 mph - N/A   Scattered Clouds
2:48 AM 61.3 °F 55.9 °F 82% 29.43 in 10.0 mi ESE 11.5 mph - N/A   Clear
3:14 AM 61.7 °F 55.9 °F 81% 29.43 in 10.0 mi SE 10.4 mph - N/A   Scattered Clouds
3:20 AM 61.7 °F 55.9 °F 81% 29.42 in 10.0 mi SE 10.4 mph - N/A   Scattered Clouds
3:45 AM 62.6 °F 55.4 °F 77% 29.41 in 10.0 mi SSE 9.2 mph - N/A   Clear
4:10 AM 62.6 °F 57.2 °F 82% 29.40 in 10.0 mi SE 9.2 mph - N/A   Clear
4:13 AM 62.6 °F 57.2 °F 82% 29.40 in 10.0 mi SE 10.4 mph - N/A   Clear
4:33 AM 63.1 °F 57.9 °F 83% 29.39 in 10.0 mi SSE 8.1 mph - N/A   Clear
4:54 AM 63.5 °F 58.5 °F 84% 29.39 in 10.0 mi SSE 8.1 mph - N/A   Clear
5:14 AM 64.0 °F 59.0 °F 84% 29.38 in 10.0 mi SSE 8.1 mph - N/A   Clear
5:16 AM 63.9 °F 59.0 °F 84% 29.38 in 10.0 mi SSE 8.1 mph - N/A   Clear
5:43 AM 64.6 °F 59.4 °F 83% 29.38 in 10.0 mi South 11.5 mph - N/A   Clear
6:05 AM 64.4 °F 59.0 °F 83% 29.40 in 10.0 mi South 10.4 mph - N/A   Clear
6:25 AM 64.4 °F 59.0 °F 83% 29.40 in 10.0 mi SSW 8.1 mph - N/A   Clear
6:32 AM 65.7 °F 58.5 °F 78% 29.41 in 10.0 mi SSW 10.4 mph - N/A   Clear
6:48 AM 65.8 °F 58.1 °F 76% 29.42 in 10.0 mi SSW 11.5 mph - N/A   Clear
6:53 AM 65.8 °F 58.1 °F 76% 29.42 in 10.0 mi SSW 11.5 mph - N/A   Clear
7:13 AM 66.6 °F 56.5 °F 70% 29.43 in 10.0 mi SW 12.7 mph 19.6 mph N/A   Clear
7:34 AM 66.0 °F 52.2 °F 61% 29.45 in 10.0 mi WSW 17.3 mph 25.3 mph N/A   Clear
7:54 AM 64.8 °F 51.3 °F 62% 29.47 in 10.0 mi WSW 17.3 mph 23.0 mph N/A   Clear
8:11 AM 63.3 °F 50.4 °F 63% 29.48 in 10.0 mi West 20.7 mph 27.6 mph N/A   Clear
8:34 AM 60.6 °F 48.7 °F 65% 29.50 in 10.0 mi West 20.7 mph 27.6 mph N/A   Clear
8:54 AM 59.5 °F 48.0 °F 66% 29.51 in 10.0 mi West 19.6 mph 26.5 mph N/A   Clear
9:14 AM 58.1 °F 47.7 °F 68% 29.55 in 10.0 mi West 23.0 mph 28.8 mph N/A   Clear
9:34 AM 57.0 °F 47.1 °F 69% 29.57 in 10.0 mi West 23.0 mph 32.2 mph N/A   Clear
9:53 AM 57.7 °F 47.5 °F 69% 29.58 in 10.0 mi West 20.7 mph 26.5 mph N/A   Clear
10:14 AM 58.6 °F 47.5 °F 66% 29.60 in 10.0 mi West 17.3 mph 25.3 mph N/A   Clear
10:33 AM 59.9 °F 47.1 °F 63% 29.60 in 10.0 mi WNW 18.4 mph 32.2 mph N/A   Clear
10:53 AM 61.3 °F 46.8 °F 59% 29.63 in 10.0 mi WNW 21.9 mph 25.3 mph N/A   Clear
11:14 AM 61.3 °F 45.5 °F 56% 29.62 in 10.0 mi WNW 13.8 mph 27.6 mph N/A   Clear
11:34 AM 62.6 °F 44.2 °F 51% 29.65 in 10.0 mi West 20.7 mph 26.5 mph N/A   Clear
11:54 AM 61.0 °F 44.6 °F 55% 29.67 in 10.0 mi West 15.0 mph 20.7 mph N/A   Scattered Clouds
12:10 PM 61.9 °F 45.5 °F 55% 29.68 in 10.0 mi West 18.4 mph 25.3 mph N/A   Scattered Clouds
12:34 PM 61.9 °F 45.7 °F 55% 29.69 in 10.0 mi West 15.0 mph 20.7 mph N/A   Scattered Clouds
12:54 PM 62.6 °F 45.0 °F 52% 29.67 in 10.0 mi West 17.3 mph 20.7 mph N/A   Scattered Clouds
1:13 PM 63.9 °F 41.2 °F 43% 29.68 in 10.0 mi WNW 16.1 mph 23.0 mph N/A   Scattered Clouds
1:34 PM 64.8 °F 41.5 °F 43% 29.70 in 10.0 mi West 13.8 mph 21.9 mph N/A   Clear
1:51 PM 64.8 °F 39.6 °F 40% 29.69 in 10.0 mi West 13.8 mph 21.9 mph N/A   Scattered Clouds
2:14 PM 66.0 °F 37.2 °F 35% 29.70 in 10.0 mi West 16.1 mph - N/A   Scattered Clouds
2:34 PM 67.5 °F 37.2 °F 33% 29.72 in 10.0 mi WNW 19.6 mph 23.0 mph N/A   Scattered Clouds
2:54 PM 66.4 °F 37.0 °F 34% 29.74 in 10.0 mi WNW 12.7 mph - N/A   Clear
3:14 PM 67.5 °F 33.6 °F 29% 29.72 in 10.0 mi West 19.6 mph - N/A   Clear
3:34 PM 66.4 °F 32.9 °F 29% 29.73 in 10.0 mi WNW 21.9 mph 26.5 mph N/A   Clear
3:54 PM 65.5 °F 32.7 °F 30% 29.75 in 10.0 mi West 15.0 mph 18.4 mph N/A   Mostly Cloudy
4:14 PM 64.9 °F 31.1 °F 28% 29.77 in 10.0 mi West 13.8 mph 23.0 mph N/A   Overcast
4:34 PM 65.1 °F 32.2 °F 29% 29.80 in 10.0 mi West 18.4 mph 25.3 mph N/A   Mostly Cloudy
4:54 PM 65.8 °F 32.9 °F 29% 29.80 in 10.0 mi West 13.8 mph 18.4 mph N/A   Mostly Cloudy
5:14 PM 64.4 °F 30.4 °F 28% 29.82 in 10.0 mi West 16.1 mph 21.9 mph N/A   Mostly Cloudy
5:33 PM 65.5 °F 31.1 °F 28% 29.82 in 10.0 mi West 16.1 mph 23.0 mph N/A   Mostly Cloudy
5:54 PM 64.4 °F 32.0 °F 30% 29.83 in 10.0 mi WNW 16.1 mph 19.6 mph N/A   Scattered Clouds
6:13 PM 64.0 °F 31.1 °F 29% 29.84 in 10.0 mi WNW 15.0 mph 18.4 mph N/A   Clear
6:34 PM 63.5 °F 32.0 °F 31% 29.86 in 10.0 mi West 15.0 mph - N/A   Clear
6:53 PM 62.8 °F 31.3 °F 31% 29.87 in 10.0 mi WNW 11.5 mph - N/A   Clear
7:14 PM 63.5 °F 31.8 °F 31% 29.86 in 10.0 mi West 11.5 mph 16.1 mph N/A   Mostly Cloudy
7:33 PM 62.1 °F 32.5 °F 33% 29.87 in 10.0 mi WNW 15.0 mph 18.4 mph N/A   Scattered Clouds
7:54 PM 59.7 °F 33.4 °F 37% 29.87 in 10.0 mi NW 10.4 mph - N/A   Clear
8:14 PM 58.5 °F 33.6 °F 39% 29.87 in 10.0 mi WNW 10.4 mph - N/A   Clear
8:34 PM 56.8 °F 33.8 °F 42% 29.88 in 10.0 mi NW 6.9 mph - N/A   Clear
9:14 PM 55.9 °F 33.8 °F 43% 29.89 in 10.0 mi NW 12.7 mph 19.6 mph N/A   Clear
9:34 PM 55.9 °F 33.3 °F 42% 29.90 in 10.0 mi NW 11.5 mph - N/A   Scattered Clouds
9:53 PM 55.0 °F 34.5 °F 46% 29.92 in 10.0 mi NW 12.7 mph - N/A   Scattered Clouds
10:14 PM 55.4 °F 35.1 °F 46% 29.94 in 10.0 mi NW 12.7 mph - N/A   Overcast
10:34 PM 55.0 °F 35.8 °F 48% 29.93 in 10.0 mi NW 15.0 mph 19.6 mph N/A   Overcast
10:53 PM 54.7 °F 36.9 °F 51% 29.95 in 10.0 mi NNW 17.3 mph - N/A   Overcast
11:14 PM 54.0 °F 36.5 °F 52% 29.96 in 10.0 mi NW 16.1 mph - N/A   Overcast
11:33 PM 53.6 °F 36.0 °F 51% 29.98 in 10.0 mi NW 19.6 mph 23.0 mph N/A   Overcast
11:54 PM 52.9 °F 36.1 °F 53% 29.99 in 10.0 mi NW 13.8 mph - N/A   Overcast